Taos, NM

1:37 AM MDT on May 25, 2017 (GMT -0600)
Taos Municipal

Weather History for KSKX - May, 2014

Change the Weather History Date:

Monday, May 5, 2014

  Actual Average Record
Temperature  
Mean Temperature 54 °F -  
Max Temperature 75 °F 66 °F 80 °F (2000)
Min Temperature 33 °F 31 °F 21 °F (2003)
Degree Days  
Heating Degree Days 11    
Growing Degree Days 4 (Base 50)    
Moisture  
Dew Point 12 °F    
Average Humidity 20    
Maximum Humidity 36    
Minimum Humidity 10    
Precipitation  
Precipitation 0.00 in - - ()
Sea Level Pressure  
Sea Level Pressure 30.12 in    
Wind  
Wind Speed 7 mph (WSW)    
Max Wind Speed 24 mph    
Max Gust Speed 31 mph    
Visibility 10 miles    
Events      
Averages and records for this station are not official NWS values.
T = Trace of Precipitation, MM = Missing Value Source: NWS Daily Summary

Daily Weather History Graph

Daily Weather History Graph

Search for Another Location

Airport or City:

Trip Planner

Search our weather history database for the weather conditions in past years. The results will help you decide how hot, cold, wet, or windy it might be!

Date:

Astronomy

May. 05, 2014 Rise Set
Actual Time 6:05 AM MDT 7:54 PM MDT
Civil Twilight 5:37 AM MDT 8:22 PM MDT
Nautical Twilight 5:03 AM MDT 8:56 PM MDT
Astronomical Twilight 4:27 AM MDT 9:32 PM MDT
Moon 11:26 AM MDT (5/5) 12:40 AM MDT (5/5)
Length of Visible Light 14h 45m
Length of Day
13h 49m
Waxing Crescent, 37% of the Moon is Illuminated
May 5
Waxing Crescent
May 6
First Quarter
May 14
Full
May 21
Last Quarter
May 28
New

Hourly Weather History & Observations

Time (MDT) Temp. Windchill Dew Point Humidity Pressure Visibility Wind Dir Wind Speed Gust Speed Precip Events Conditions
12:15 AM 44.6 °F 39.2 °F 10.4 °F 25% 30.18 in 10.0 mi East 10.4 mph - N/A   Clear
12:35 AM 42.8 °F - 8.6 °F 25% 30.18 in 10.0 mi Calm Calm - N/A   Clear
12:55 AM 42.8 °F - 10.4 °F 27% 30.18 in 10.0 mi Calm Calm - N/A   Clear
1:15 AM 42.8 °F 41.1 °F 10.4 °F 27% 30.18 in 10.0 mi NNE 3.5 mph - N/A   Clear
1:35 AM 41.0 °F 38.0 °F 10.4 °F 29% 30.18 in 10.0 mi North 4.6 mph - N/A   Clear
1:55 AM 42.8 °F 38.0 °F 8.6 °F 25% 30.18 in 10.0 mi North 8.1 mph - N/A   Clear
2:15 AM 39.2 °F 37.0 °F 8.6 °F 28% 30.18 in 10.0 mi NNE 3.5 mph - N/A   Clear
2:35 AM 39.2 °F - 10.4 °F 31% 30.18 in 10.0 mi Calm Calm - N/A   Clear
2:55 AM 39.2 °F - 10.4 °F 31% 30.19 in 10.0 mi Calm Calm - N/A   Clear
3:15 AM 39.2 °F - 10.4 °F 31% 30.19 in 10.0 mi Calm Calm - N/A   Clear
3:35 AM 37.4 °F 32.1 °F 10.4 °F 33% 30.19 in 10.0 mi East 6.9 mph - N/A   Clear
3:55 AM 39.2 °F 37.0 °F 10.4 °F 31% 30.19 in 10.0 mi East 3.5 mph - N/A   Clear
4:15 AM 39.2 °F 34.2 °F 8.6 °F 28% 30.20 in 10.0 mi ESE 6.9 mph - N/A   Clear
4:35 AM 37.4 °F 33.8 °F 8.6 °F 30% 30.20 in 10.0 mi ESE 4.6 mph - N/A   Clear
4:55 AM 37.4 °F 32.8 °F 10.4 °F 33% 30.20 in 10.0 mi East 5.8 mph - N/A   Clear
5:15 AM 37.4 °F 31.4 °F 10.4 °F 33% 30.21 in 10.0 mi ESE 8.1 mph - N/A   Clear
5:35 AM 37.4 °F 33.8 °F 10.4 °F 33% 30.21 in 10.0 mi ESE 4.6 mph - N/A   Clear
5:55 AM 33.8 °F 29.6 °F 6.8 °F 32% 30.21 in 10.0 mi ENE 4.6 mph - N/A   Clear
6:15 AM 35.6 °F 30.7 °F 10.4 °F 35% 30.22 in 10.0 mi ENE 5.8 mph - N/A   Clear
6:35 AM 37.4 °F 30.3 °F 12.2 °F 36% 30.22 in 10.0 mi ENE 10.4 mph - N/A   Clear
6:55 AM 39.2 °F - 12.2 °F 33% 30.22 in 10.0 mi Calm Calm - N/A   Clear
7:15 AM 42.8 °F - 15.8 °F 34% 30.22 in 10.0 mi Calm Calm - N/A   Clear
7:35 AM 44.6 °F - 14.0 °F 29% 30.22 in 10.0 mi Calm Calm - N/A   Clear
7:55 AM 50.0 °F - 17.6 °F 28% 30.22 in 10.0 mi Calm Calm - N/A   Clear
8:15 AM 51.8 °F - 19.4 °F 28% 30.21 in 10.0 mi Calm Calm - N/A   Clear
8:35 AM 55.4 °F - 19.4 °F 25% 30.21 in 10.0 mi Calm Calm - N/A   Clear
8:55 AM 59.0 °F - 17.6 °F 20% 30.21 in 10.0 mi Calm Calm - N/A   Clear
9:15 AM 60.8 °F - 17.6 °F 19% 30.21 in 10.0 mi West 5.8 mph - N/A   Clear
9:35 AM 60.8 °F - 15.8 °F 17% 30.20 in 10.0 mi SW 9.2 mph - N/A   Clear
9:55 AM 62.6 °F - 15.8 °F 16% 30.20 in 10.0 mi WSW 4.6 mph - N/A   Clear
10:15 AM 62.6 °F - 15.8 °F 16% 30.19 in 10.0 mi Calm Calm - N/A   Clear
10:35 AM 64.4 °F - 15.8 °F 15% 30.19 in 10.0 mi Calm Calm - N/A   Clear
10:55 AM 64.4 °F - 15.8 °F 15% 30.18 in 10.0 mi South 3.5 mph - N/A   Clear
11:15 AM 66.2 °F - 17.6 °F 15% 30.16 in 10.0 mi South 8.1 mph - N/A   Clear
11:35 AM 66.2 °F - 15.8 °F 14% 30.16 in 10.0 mi West 9.2 mph - N/A   Clear
12:15 PM 69.8 °F - 15.8 °F 13% 30.13 in 10.0 mi West 9.2 mph 19.6 mph N/A   Clear
12:35 PM 71.6 °F - 15.8 °F 12% 30.12 in 10.0 mi West 19.6 mph 27.6 mph N/A   Clear
12:55 PM 71.6 °F - 14.0 °F 11% 30.12 in 10.0 mi SW 13.8 mph 25.3 mph N/A   Clear
1:15 PM 71.6 °F - 12.2 °F 10% 30.11 in 10.0 mi WNW 17.3 mph 21.9 mph N/A   Clear
1:35 PM 69.8 °F - 12.2 °F 11% 30.11 in 10.0 mi WSW 10.4 mph 18.4 mph N/A   Clear
1:55 PM 71.6 °F - 14.0 °F 11% 30.10 in 10.0 mi West 10.4 mph 17.3 mph N/A   Clear
2:15 PM 69.8 °F - 12.2 °F 11% 30.09 in 10.0 mi West 6.9 mph - N/A   Clear
2:35 PM 71.6 °F - 12.2 °F 10% 30.08 in 10.0 mi West 16.1 mph 23.0 mph N/A   Clear
2:55 PM 71.6 °F - 12.2 °F 10% 30.07 in 10.0 mi WSW 19.6 mph 24.2 mph N/A   Clear
3:15 PM 73.4 °F - 15.8 °F 11% 30.06 in 10.0 mi West 20.7 mph 29.9 mph N/A   Clear
3:35 PM 73.4 °F - 15.8 °F 11% 30.05 in 10.0 mi WSW 19.6 mph 31.1 mph N/A   Clear
3:55 PM 73.4 °F - 15.8 °F 11% 30.04 in 10.0 mi West 16.1 mph - N/A   Clear
4:15 PM 75.2 °F - 15.8 °F 11% 30.03 in 10.0 mi West 16.1 mph 28.8 mph N/A   Clear
4:35 PM 73.4 °F - 15.8 °F 11% 30.02 in 10.0 mi WSW 20.7 mph 31.1 mph N/A   Clear
4:55 PM 73.4 °F - 15.8 °F 11% 30.01 in 10.0 mi WSW 24.2 mph 29.9 mph N/A   Clear
5:15 PM 73.4 °F - 15.8 °F 11% 30.01 in 10.0 mi WSW 21.9 mph 26.5 mph N/A   Clear
5:35 PM 71.6 °F - 14.0 °F 11% 30.01 in 10.0 mi West 18.4 mph 28.8 mph N/A   Clear
5:55 PM 71.6 °F - 12.2 °F 10% 30.01 in 10.0 mi West 19.6 mph - N/A   Clear
6:15 PM 71.6 °F - 14.0 °F 11% 30.00 in 10.0 mi WSW 18.4 mph 25.3 mph N/A   Clear
6:35 PM 71.6 °F - 12.2 °F 10% 30.00 in 10.0 mi West 18.4 mph 27.6 mph N/A   Clear
6:55 PM 69.8 °F - 12.2 °F 11% 30.00 in 10.0 mi West 19.6 mph - N/A   Clear
7:15 PM 69.8 °F - 12.2 °F 11% 30.00 in 10.0 mi West 15.0 mph 23.0 mph N/A   Clear
7:35 PM 66.2 °F - 10.4 °F 11% 30.00 in 10.0 mi West 12.7 mph - N/A   Clear
7:55 PM 62.6 °F - 8.6 °F 12% 30.00 in 10.0 mi WNW 9.2 mph - N/A   Clear
8:15 PM 59.0 °F - 6.8 °F 13% 30.01 in 10.0 mi WNW 9.2 mph - N/A   Clear
8:35 PM 55.4 °F - 6.8 °F 14% 30.01 in 10.0 mi WNW 9.2 mph - N/A   Clear
8:55 PM 53.6 °F - 5.0 °F 14% 30.01 in 10.0 mi WNW 6.9 mph - N/A   Clear
9:15 PM 51.8 °F - 5.0 °F 15% 30.01 in 10.0 mi NW 6.9 mph - N/A   Clear
9:35 PM 53.6 °F - 6.8 °F 15% 30.02 in 10.0 mi NW 4.6 mph - N/A   Clear
9:55 PM 51.8 °F - 5.0 °F 15% 30.02 in 10.0 mi Calm Calm - N/A   Clear
10:15 PM 44.6 °F 39.2 °F 1.4 °F 17% 30.02 in 10.0 mi ESE 10.4 mph - N/A   Clear
10:35 PM 42.8 °F 38.6 °F 5.0 °F 21% 30.02 in 10.0 mi ESE 6.9 mph - N/A   Clear
10:55 PM 44.6 °F 42.2 °F 6.8 °F 21% 30.02 in 10.0 mi East 4.6 mph - N/A   Clear
11:15 PM 42.8 °F 37.5 °F 6.8 °F 23% 30.01 in 10.0 mi East 9.2 mph - N/A   Clear
11:35 PM 42.8 °F 38.0 °F 8.6 °F 25% 30.02 in 10.0 mi East 8.1 mph - N/A   Clear
11:55 PM 44.6 °F 40.7 °F 8.6 °F 23% 30.01 in 10.0 mi East 6.9 mph - N/A   Clear